Location: Kings Park
(40.8862°N, 73.2573°W)
Time: 06:00:04
(UTC+00:00)

Cosmos 1980 Rocket - Pass Details

Date: 29 October 2020
Orbit: 831 x 848 km, 71.0° (Epoch: 27 November)

Event Time Altitude Azimuth Distance (km) Brightness Sun altitude
Rises 22:33:48 0° 163° (SSE) 3,377 5.3 -8.5°
Reaches altitude 10° 22:36:46 10° 148° (SSE) 2,444 4.4 -9.0°
Maximum altitude 22:40:53 21° 101° (E) 1,782 3.3 -9.8°
Drops below altitude 10° 22:44:59 10° 53° (NE) 2,448 4.1 -10.6°
Enters shadow 22:45:06 10° 52° (NE) 2,478 4.1 -10.6°
